Location: ??????
(42.0089°N, 44.3281°E)
Time: 18:53:28
(UTC+00:00)

MOS 1-B Rocket - Pass Details

Date: 24 October 2021
Orbit: 890 x 1606 km, 99.0° (Epoch: 01 December)

Event Time Altitude Azimuth Distance (km) Brightness Sun altitude
Rises 15:31:28 0° 12° (NNE) 3,981 7.1 -16.2°
Reaches altitude 10° 15:34:11 10° 11° (NNE) 2,923 6.4 -16.7°
Maximum altitude 15:40:39 78° 287° (WNW) 998 4.1 -17.9°
Drops below altitude 10° 15:46:21 10° 202° (SSW) 2,593 6.5 -19.0°
Sets 15:48:39 0° 201° (SSW) 3,503 7.2 -19.4°
